Weather History for EKAH - January, 2014

Change the Weather History Date:

Friday, January 3, 2014

  Actual Average Record
Temperature  
Mean Temperature 43 °F -  
Max Temperature 45 °F 36 °F 49 °F (2013)
Min Temperature 41 °F 27 °F 14 °F (2002)
Degree Days  
Heating Degree Days 22    
Moisture  
Dew Point 40 °F    
Average Humidity 88    
Maximum Humidity 93    
Minimum Humidity 79    
Precipitation  
Precipitation 0.08 in - - ()
Sea Level Pressure  
Sea Level Pressure 29.53 in    
Wind  
Wind Speed 7 mph ()    
Max Wind Speed 13 mph    
Max Gust Speed 26 mph    
Visibility 5.8 miles    
Events Rain    
Averages and records for this station are not official NWS values.
T = Trace of Precipitation, MM = Missing Value Source: Averaged Metar Reports

Daily Weather History Graph

Daily Weather History Graph

Search for Another Location

Airport or City:

Trip Planner

Search our weather history database for the weather conditions in past years. The results will help you decide how hot, cold, wet, or windy it might be!

Date:

Astronomy

Jan. 03, 2014 Rise Set
Actual Time 8:50 AM CET 3:54 PM CET
Civil Twilight 8:02 AM CET 4:41 PM CET
Nautical Twilight 7:13 AM CET 5:30 PM CET
Astronomical Twilight 6:28 AM CET 6:16 PM CET
Moon 9:31 AM CET (1/3) 7:20 PM CET (1/3)
Length of Visible Light 8h 38m
Length of Day
7h 04m
Waxing Crescent, 6% of the Moon is Illuminated
Jan 3
Waxing Crescent
Jan 8
First Quarter
Jan 16
Full
Jan 24
Last Quarter
Jan 30
New

Hourly Weather History & Observations

Time (CET) Temp. Windchill Dew Point Humidity Pressure Visibility Wind Dir Wind Speed Gust Speed Precip Events Conditions
12:00 AM 43 °F - 41 °F 88% 29.55 in 4 mi South 5.8 mph - - Rain Light Rain Showers
12:20 AM 42.8 °F 38.6 °F 41.0 °F 93% 29.53 in 3.1 mi South 6.9 mph - N/A   Mostly Cloudy
12:50 AM 42.8 °F 40.1 °F 41.0 °F 93% 29.56 in 3.7 mi SSW 4.6 mph - N/A   Mostly Cloudy
1:00 AM 44 °F - 42 °F 89% 29.57 in 4 mi SW 5.8 mph - -   Mist
1:20 AM 42.8 °F 38.6 °F 41.0 °F 93% 29.56 in 5.0 mi SW 6.9 mph - N/A   Mostly Cloudy
1:50 AM 42.8 °F 37.5 °F 41.0 °F 93% 29.56 in 6.2 mi WSW 9.2 mph - N/A   Mostly Cloudy
2:00 AM 43 °F - 41 °F 89% 29.59 in 10 mi WSW 8.1 mph - -  
2:20 AM 42.8 °F 40.1 °F 41.0 °F 93% 29.59 in 6.2 mi SSW 4.6 mph - N/A   Mostly Cloudy
2:50 AM 42.8 °F 40.1 °F 41.0 °F 93% 29.59 in 6.2 mi SSW 4.6 mph - N/A   Mostly Cloudy
3:00 AM 43 °F - 41 °F 88% 29.61 in 10 mi South 4.6 mph - -  
3:20 AM 42.8 °F 41.1 °F 41.0 °F 93% 29.59 in 6.2 mi South 3.5 mph - N/A   Mostly Cloudy
3:50 AM 42.8 °F 41.1 °F 39.2 °F 87% 29.62 in 6.2 mi SSE 3.5 mph - N/A   Mostly Cloudy
4:00 AM 43 °F - 39 °F 81% 29.63 in 9 mi SSE 3.5 mph - -  
4:20 AM 42.8 °F 39.3 °F 39.2 °F 87% 29.62 in 6.2 mi SSW 5.8 mph - N/A   Mostly Cloudy
4:50 AM 42.8 °F 39.3 °F 39.2 °F 87% 29.62 in 6.2 mi SSW 5.8 mph - N/A   Mostly Cloudy
5:00 AM 43 °F - 39 °F 79% 29.62 in 11 mi SSW 5.8 mph - -  
5:20 AM 42.8 °F 40.1 °F 39.2 °F 87% 29.62 in 6.2 mi SSW 4.6 mph - N/A   Overcast
5:50 AM 42.8 °F 40.1 °F 39.2 °F 87% 29.62 in 6.2 mi South 4.6 mph - N/A   Mostly Cloudy
6:00 AM 42 °F - 38 °F 82% 29.62 in 9 mi South 4.6 mph - -  
6:20 AM 41.0 °F 37.1 °F 37.4 °F 87% 29.62 in 6.2 mi South 5.8 mph - N/A   Partly Cloudy
7:00 AM - - - %  in - Calm Calm - -  
7:50 AM 42.8 °F 39.3 °F 39.2 °F 87% 29.62 in 6.2 mi South 5.8 mph - N/A   Overcast
8:50 AM 42.8 °F 37.5 °F 39.2 °F 87% 29.62 in 6.2 mi SSE 9.2 mph - N/A   Mostly Cloudy
9:00 AM 43 °F - 39 °F 81% 29.62 in 6 mi SSE 10.4 mph - -  
9:20 AM 42.8 °F 37.0 °F 39.2 °F 87% 29.59 in 5.0 mi SSE 10.4 mph - N/A   Mostly Cloudy
9:50 AM 42.8 °F 37.0 °F 39.2 °F 87% 29.59 in 3.7 mi SSE 10.4 mph - N/A   Mostly Cloudy
10:00 AM 43 °F - 39 °F 82% 29.61 in 3 mi SSE 10.4 mph - -   Mist
10:20 AM 42.8 °F 36.6 °F 39.2 °F 87% 29.59 in 3.7 mi SSE 11.5 mph - N/A   Mostly Cloudy
10:50 AM 42.8 °F 37.0 °F 39.2 °F 87% 29.56 in 3.7 mi SSE 10.4 mph - N/A   Mostly Cloudy
11:00 AM 43 °F - 39 °F 81% 29.59 in 6 mi SSE 9.2 mph - -   Mist
11:20 AM 42.8 °F 37.0 °F 39.2 °F 87% 29.56 in 5.0 mi SSE 10.4 mph - N/A   Mostly Cloudy
11:50 AM 42.8 °F 37.5 °F 39.2 °F 87% 29.56 in 6.2 mi SSE 9.2 mph - N/A   Mostly Cloudy
12:00 PM 43 °F - 39 °F 80% 29.56 in 10 mi SSE 9.2 mph - -  
12:20 PM 42.8 °F 37.0 °F 39.2 °F 87% 29.53 in 6.2 mi SSE 10.4 mph - N/A   Mostly Cloudy
12:50 PM 42.8 °F 37.5 °F 39.2 °F 87% 29.53 in 6.2 mi SSE 9.2 mph - N/A   Mostly Cloudy
1:00 PM 43 °F - 39 °F 79% 29.54 in 12 mi SSE 10.4 mph - -  
1:20 PM 42.8 °F 37.0 °F 39.2 °F 87% 29.50 in 6.2 mi SSE 10.4 mph 23.0 mph N/A   Mostly Cloudy
1:50 PM 42.8 °F 37.5 °F 39.2 °F 87% 29.50 in 6.2 mi South 9.2 mph - N/A   Light Drizzle
2:00 PM 43 °F - 39 °F 79% 29.52 in 11 mi SSE 12.7 mph - - Rain Light Rain Showers
2:20 PM 42.8 °F 36.6 °F 39.2 °F 87% 29.50 in 6.2 mi SSE 11.5 mph 23.0 mph N/A Rain Light Rain Showers
2:50 PM 42.8 °F 36.2 °F 39.2 °F 87% 29.50 in 4.3 mi SSE 12.7 mph 26.5 mph N/A Rain Light Rain Showers
3:00 PM 43 °F - 39 °F 81% 29.50 in 3 mi SSE 12.7 mph - - Rain Light Rain Showers
3:20 PM 42.8 °F 36.2 °F 39.2 °F 87% 29.47 in 3.7 mi SSE 12.7 mph 24.2 mph N/A Rain Light Rain
3:50 PM 42.8 °F 36.2 °F 39.2 °F 87% 29.47 in 3.7 mi SSE 12.7 mph 25.3 mph N/A Rain Light Rain
4:00 PM 42 °F - 40 °F 89% 29.49 in 4 mi SSE 12.7 mph - - Rain Light Rain
4:20 PM 42.8 °F 36.6 °F 41.0 °F 93% 29.47 in - South 11.5 mph - N/A Rain Light Rain
4:50 PM 42.8 °F 36.2 °F 41.0 °F 93% 29.47 in 6.2 mi South 12.7 mph 26.5 mph N/A Rain Light Rain
5:00 PM 42 °F - 40 °F 92% 29.47 in 6 mi SSE 11.5 mph - - Rain Light Rain
5:20 PM 42.8 °F 36.6 °F 41.0 °F 93% 29.44 in 5.6 mi South 11.5 mph - N/A   Overcast
5:50 PM 42.8 °F 37.0 °F 41.0 °F 93% 29.44 in 3.7 mi South 10.4 mph 25.3 mph N/A   Overcast
6:00 PM 44 °F - 42 °F 88% 29.47 in 6 mi South 8.1 mph - -   Mist
6:20 PM 44.6 °F 40.2 °F 41.0 °F 87% 29.44 in 6.2 mi South 8.1 mph - N/A   Mostly Cloudy
6:50 PM 44.6 °F 39.2 °F 41.0 °F 87% 29.44 in 4.3 mi South 10.4 mph - N/A Rain Light Rain Showers
7:00 PM 44 °F - 42 °F 89% 29.47 in 4 mi South 10.4 mph - - Rain Light Rain Showers
7:20 PM 44.6 °F 39.2 °F 42.8 °F 93% 29.44 in 4.3 mi South 10.4 mph 24.2 mph N/A   Mostly Cloudy
7:50 PM 44.6 °F 40.2 °F 42.8 °F 93% 29.44 in 5.6 mi South 8.1 mph - N/A   Mostly Cloudy
8:00 PM 45 °F - 43 °F 90% 29.47 in 6 mi South 8.1 mph - -   Mist
8:20 PM 44.6 °F 40.7 °F 42.8 °F 93% 29.44 in 4.3 mi South 6.9 mph - N/A   Scattered Clouds
8:50 PM 44.6 °F 40.2 °F 42.8 °F 93% 29.47 in 4.3 mi South 8.1 mph - N/A   Scattered Clouds
9:00 PM 45 °F - 42 °F 86% 29.49 in 5 mi South 8.1 mph - -   Mist
9:20 PM 44.6 °F 40.2 °F 42.8 °F 93% 29.47 in 5.6 mi South 8.1 mph - N/A   Scattered Clouds
9:50 PM 44.6 °F 42.2 °F 41.0 °F 87% 29.47 in 5.6 mi South 4.6 mph - N/A   Scattered Clouds
10:00 PM 44 °F - 41 °F 86% 29.48 in 5 mi South 5.8 mph - -   Mist
10:20 PM 44.6 °F 40.7 °F 41.0 °F 87% 29.44 in 5.0 mi South 6.9 mph - N/A   Mostly Cloudy
10:50 PM 44.6 °F 40.2 °F 41.0 °F 87% 29.44 in 4.3 mi SSE 8.1 mph - N/A   Mostly Cloudy
11:00 PM 44 °F - 41 °F 87% 29.45 in 4 mi SSE 8.1 mph - -   Mist
11:20 PM 44.6 °F 40.2 °F 41.0 °F 87% 29.44 in 5.0 mi SSE 8.1 mph - N/A   Mostly Cloudy
11:50 PM 44.6 °F 40.7 °F 41.0 °F 87% 29.44 in 5.6 mi South 6.9 mph - N/A   Mostly Cloudy